Wind_Gust
15 16 16 16 16 16 16 17 17 17 17 17 17 18 18 18 18 18 18 18 18 19 19 19 19 19 19 20 20 21 17 18 19 12 6 28 10 14 15 4 11 16 15 5 9 10 5 4 5 1 7 6 5 5 7 4 4 4 9 12 4 9 6 10 11 13 2 5 9 14 5 4 4 4 5 7 12 9 7 10 6 8 9 6 7 14 17 19
17 17 17 18 17 17 17 17 17 17 17 17 17 18 18 18 18 18 19 18 19 19 19 19 20 20 20 19 20 21 18 15 16 14 34 15 12 16 17 12 9 17 17 6 11 6 12 2 4 5 10 8 2 6 4 9 7 9 7 9 13 10 15 8 7 8 5 9 6 10 6 3 4 6 5 8 1 3 7 6 8 9 9 13 14 17 17 19
16 16 16 18 18 17 17 17 17 17 17 17 17 18 18 18 18 18 19 19 19 19 19 19 20 20 20 20 20 18 15 13 7 18 32 20 34 25 21 19 13 21 19 11 6 12 11 14 10 7 4 5 2 6 4 9 10 9 11 8 14 10 9 7 6 8 5 5 15 13 6 4 3 3 3 5 4 3 7 9 2 6 8 10 13 15 18 19
16 15 16 17 17 18 17 17 17 18 17 18 18 17 18 18 18 18 18 19 19 19 18 19 20 20 20 19 19 13 5 8 13 18 8 6 18 25 19 18 18 19 11 7 11 10 5 10 8 9 7 3 6 2 10 9 12 8 8 11 11 7 6 9 6 12 13 6 7 6 6 3 5 4 5 8 7 4 6 9 11 16 15 15 15 17 18 18
16 16 17 17 17 18 17 17 17 17 18 18 19 18 18 18 18 19 19 18 18 18 18 19 20 20 20 19 19 5 3 7 18 5 3 5 9 17 22 18 20 15 12 10 11 6 9 10 9 4 8 13 3 2 7 5 9 8 11 6 7 2 4 13 8 8 7 7 3 6 7 3 2 4 7 10 9 7 11 10 8 12 19 21 21 19 17 18
17 17 17 17 17 18 18 18 18 18 17 18 19 19 19 19 19 19 19 18 18 18 18 18 19 19 20 19 9 5 3 12 5 5 5 6 7 13 18 19 20 16 14 13 10 8 10 4 10 9 9 7 7 12 7 7 4 13 6 5 8 7 11 4 4 7 2 10 7 3 5 5 4 3 5 8 6 5 4 2 11 17 18 15 18 22 20 18
16 16 16 17 17 17 17 18 18 18 17 18 19 18 19 19 19 19 19 19 18 18 18 18 18 19 18 14 2 2 6 29 10 10 7 8 6 12 18 19 18 16 14 14 11 16 6 9 8 6 10 6 3 14 8 3 1 6 14 1 5 6 12 7 12 12 11 8 14 5 8 9 5 1 3 3 8 5 5 8 14 17 15 16 21 17 21 20
17 17 18 18 19 19 18 18 18 18 18 18 19 19 18 19 20 20 19 19 18 18 18 17 17 17 16 8 4 5 3 24 24 6 6 11 12 18 18 13 15 13 14 16 16 11 10 13 16 9 8 17 8 15 3 4 1 8 11 5 7 4 9 8 9 11 10 12 12 10 11 17 4 4 6 5 7 5 10 14 17 17 16 14 16 17 15 14
17 18 18 17 18 18 18 19 19 20 20 18 19 19 19 19 19 20 19 19 18 17 17 16 16 14 10 4 4 4 20 20 6 6 10 11 12 15 20 19 8 15 12 11 9 12 13 11 7 11 12 10 4 7 3 7 14 11 10 5 5 8 7 7 9 10 10 10 6 7 13 14 10 8 4 6 5 6 13 15 16 16 15 14 13 15 15 14
17 17 18 19 19 19 18 18 19 20 20 20 19 20 20 19 20 19 20 19 18 17 17 16 15 14 6 5 2 5 17 8 7 3 6 13 12 16 7 9 15 13 15 6 7 11 15 18 16 7 8 5 5 7 4 8 12 7 7 7 7 10 7 6 7 8 3 8 3 9 7 10 9 5 12 2 5 12 14 15 14 16 16 13 13 11 11 12
17 18 19 19 19 19 19 19 19 19 19 20 20 20 21 21 21 19 19 18 18 17 16 16 12 11 5 2 8 19 12 4 3 8 6 8 15 17 13 14 11 16 11 6 12 15 5 10 7 9 4 11 8 6 5 9 5 5 6 1 5 8 6 10 6 14 2 11 10 10 10 3 4 5 9 6 6 11 19 14 17 16 16 14 11 12 9 11
18 19 19 19 19 18 19 19 20 20 20 20 21 21 21 22 21 19 19 18 17 16 15 13 13 9 7 6 9 29 6 6 6 5 9 8 10 11 7 12 10 14 17 14 12 7 6 11 7 10 11 5 5 2 7 6 2 2 4 7 10 7 11 4 10 7 9 11 8 9 1 5 3 9 5 7 7 8 16 18 17 16 14 13 11 11 12 15
19 19 19 20 20 18 17 19 19 20 20 21 22 22 21 22 21 20 19 18 15 15 15 13 8 5 4 7 27 26 16 7 1 6 4 3 3 2 8 9 9 8 11 12 7 8 7 5 6 7 4 5 4 10 3 4 3 2 3 5 5 8 9 7 4 2 6 7 11 10 8 11 13 10 2 5 9 8 10 13 17 15 13 14 12 14 12 11
20 19 19 19 19 19 18 19 19 20 20 21 22 22 22 23 23 22 20 18 17 16 13 10 6 5 7 22 20 7 7 12 13 13 11 8 6 6 4 6 10 6 1 5 5 11 10 3 5 3 4 4 7 4 2 8 5 9 3 6 5 2 10 7 3 1 8 5 9 5 11 14 14 8 9 6 9 16 13 12 17 16 13 14 14 14 15 13
20 20 19 19 19 19 19 19 20 20 21 22 23 23 23 24 23 22 21 18 16 13 10 5 6 6 5 29 11 20 23 7 11 14 10 12 11 3 6 6 7 7 3 3 4 2 6 4 3 4 9 5 5 5 8 2 8 3 8 8 9 6 11 12 6 5 10 3 3 5 4 13 13 12 10 15 15 13 15 13 14 15 16 15 15 15 14 14
19 20 20 18 18 19 19 20 20 21 20 22 23 24 26 26 25 23 21 17 15 13 7 3 10 10 9 28 17 7 5 8 12 14 12 15 15 9 7 9 6 6 5 4 4 3 3 7 9 12 7 3 5 8 6 5 4 9 7 4 3 2 9 7 1 3 4 3 2 5 13 5 3 8 3 4 13 14 16 15 14 15 16 17 15 16 12 11
20 19 19 18 17 18 19 20 20 21 21 21 24 25 27 26 25 22 18 13 6 5 9 7 8 10 9 13 8 8 13 12 5 3 10 13 16 10 13 7 6 8 6 2 2 4 3 11 5 6 4 8 7 9 5 5 6 5 5 8 5 3 3 6 12 2 3 3 4 4 7 9 3 5 3 7 10 10 11 14 13 15 15 15 14 15 14 11
20 19 18 18 17 18 19 20 20 20 21 20 20 24 31 28 21 8 4 5 4 2 4 8 5 4 32 21 16 9 3 5 7 10 8 8 10 10 7 6 5 12 10 5 4 10 6 11 6 11 4 6 6 7 16 15 16 8 4 5 3 3 2 2 5 4 6 5 3 2 3 14 4 3 5 11 13 15 19 19 17 16 13 14 14 15 15 14
18 18 18 18 18 18 18 19 19 20 19 17 20 25 24 10 6 5 10 12 10 4 6 16 15 16 9 3 11 8 13 7 3 9 8 14 6 6 7 7 12 13 9 9 7 7 7 8 7 5 12 7 11 11 14 9 10 10 9 8 5 3 4 4 8 8 2 3 3 4 12 14 8 6 4 8 8 15 11 2 2 5 10 12 14 14 15 15
19 19 18 18 18 18 18 18 18 18 19 13 15 19 9 5 3 6 2 4 14 14 7 8 24 9 13 5 4 4 9 5 6 10 7 6 20 7 4 6 5 9 13 12 8 7 11 11 13 11 8 10 7 11 12 8 10 9 7 9 2 1 7 6 6 10 1 3 7 10 10 10 15 7 7 11 9 6 5 6 8 9 11 13 14 15 14 14
20 18 17 18 18 18 18 18 17 15 16 12 12 10 4 3 4 9 6 15 19 18 20 10 24 22 21 4 5 16 19 12 3 4 11 9 13 19 8 8 6 6 8 9 17 6 10 10 11 10 13 13 12 8 8 8 3 7 9 3 2 2 5 6 5 6 4 3 6 5 7 11 7 6 10 9 7 3 5 6 10 13 12 10 11 10 9 5
20 19 18 18 19 19 19 19 17 17 11 3 8 9 11 10 2 4 5 18 10 26 25 25 7 21 22 21 14 6 4 10 16 9 5 10 12 21 7 9 8 13 3 7 10 10 9 14 10 14 8 5 7 6 5 11 7 4 6 4 3 7 8 12 5 5 3 6 11 3 3 7 7 7 8 14 8 5 10 4 5 6 8 9 9 7 8 5
20 18 19 19 18 20 19 20 15 13 11 5 6 8 12 9 3 5 4 10 20 17 22 23 20 24 27 19 15 6 6 14 15 8 15 8 9 11 15 11 8 7 7 7 16 9 9 7 14 6 10 10 5 6 8 8 7 9 6 5 7 6 3 10 7 7 4 6 5 2 10 5 12 4 9 12 14 8 13 11 11 9 10 6 6 9 8 7
19 18 18 18 19 19 20 19 14 8 3 6 9 15 8 2 6 9 2 11 13 9 15 19 24 13 21 20 16 18 11 12 9 9 8 18 18 10 17 9 8 10 11 8 12 15 11 5 5 13 8 11 8 6 9 9 6 2 5 7 5 3 5 10 9 12 9 3 4 7 12 9 15 15 20 20 10 18 23 19 21 17 10 7 7 8 12 13
19 18 17 18 19 21 20 20 6 4 9 8 13 17 18 18 11 6 4 12 11 20 5 4 12 14 16 8 7 16 9 10 11 8 13 15 14 15 10 13 14 7 8 7 10 8 10 8 8 13 6 4 9 6 7 12 7 5 7 10 10 4 5 3 4 11 18 9 9 5 10 7 10 10 14 18 21 22 18 22 22 20 14 9 8 5 2 4
20 19 18 17 18 19 20 11 5 11 12 13 9 3 4 6 9 7 5 7 13 12 6 13 18 18 21 9 13 12 8 15 14 16 13 13 12 15 16 12 15 12 8 11 13 13 13 5 9 10 9 6 7 9 6 9 10 7 14 12 8 8 4 2 3 3 4 6 2 4 13 13 8 16 16 13 15 18 20 23 20 19 19 14 10 8 7 4
20 19 17 17 17 15 14 7 10 12 12 8 2 7 10 10 5 4 9 8 10 19 18 5 14 20 23 14 21 12 9 15 4 7 8 10 16 5 16 6 9 8 11 13 12 16 8 7 7 7 7 8 7 8 8 13 14 13 6 14 9 7 5 6 3 6 9 6 7 7 8 17 8 8 5 7 18 21 22 22 20 19 18 18 14 13 10 10
20 18 16 16 16 11 10 16 12 12 16 6 12 12 15 10 7 5 5 7 20 12 12 12 17 10 10 10 19 24 7 7 20 13 8 10 10 7 13 11 12 12 8 12 15 8 9 11 9 7 4 6 12 10 10 12 19 13 7 14 13 13 10 7 7 5 4 1 12 11 4 12 5 5 6 9 17 18 19 18 18 17 16 16 15 15 14 13
19 17 17 16 16 16 11 10 10 18 8 9 15 16 15 10 7 6 7 11 11 15 12 15 11 10 4 11 15 15 3 11 10 6 5 8 4 14 12 11 12 10 4 15 18 7 6 12 16 15 14 12 10 7 16 17 13 9 11 7 9 8 7 8 9 6 3 8 9 7 4 12 5 9 10 6 12 11 12 12 13 14 16 16 16 15 14 13
18 15 16 17 13 8 4 6 18 17 13 17 17 18 16 6 6 5 7 13 8 8 4 8 14 12 10 22 18 13 5 4 7 9 10 16 4 5 5 7 12 11 8 3 7 12 3 4 10 13 16 16 13 8 18 20 16 10 12 10 8 12 6 6 10 6 8 5 12 9 3 8 9 7 5 8 6 7 5 6 10 13 14 15 14 15 16 14
17 18 16 14 12 12 14 14 14 8 6 11 19 19 6 5 8 9 7 23 13 3 5 8 11 11 18 20 18 12 5 3 6 16 10 9 5 5 9 12 10 11 4 4 6 8 5 3 6 10 8 6 7 7 7 10 5 7 10 10 10 5 9 9 7 9 12 10 11 5 3 4 12 4 4 4 7 11 9 9 11 13 15 14 13 14 15 14
18 18 18 15 14 11 14 11 3 4 15 16 17 9 9 10 7 13 19 9 13 9 5 10 3 14 17 8 14 26 21 5 5 17 18 16 10 14 10 13 17 14 12 7 15 5 6 7 7 8 6 13 6 8 6 3 2 11 10 15 17 10 10 10 6 12 10 15 3 2 3 6 7 5 3 6 9 9 9 8 9 11 12 14 14 15 12 11
15 16 22 20 15 15 22 23 15 17 14 13 12 4 7 8 14 15 18 11 9 7 10 5 8 9 12 11 14 11 5 9 5 7 13 10 15 8 4 11 13 17 16 8 6 6 12 6 5 9 4 8 13 12 6 6 6 10 14 15 16 14 13 13 8 9 8 11 4 2 5 10 5 5 3 5 8 7 7 9 8 10 13 14 15 15 17 17
15 19 19 14 18 21 19 12 11 5 8 10 4 8 7 8 16 9 13 14 8 11 13 8 8 6 13 26 14 17 11 2 10 12 11 15 13 17 9 3 9 9 9 5 19 12 7 10 14 9 12 8 14 13 18 13 14 19 10 19 16 18 24 15 15 17 15 14 5 6 7 11 10 6 4 6 4 6 9 11 10 12 12 13 16 16 17 17
18 19 19 17 17 19 19 15 10 6 4 7 6 9 13 20 6 7 8 6 5 10 13 9 13 12 12 8 5 16 11 13 6 11 8 17 15 16 17 9 5 8 7 16 8 10 10 15 12 9 2 11 15 10 11 10 9 5 10 12 12 16 14 10 16 12 11 11 7 9 8 2 5 3 4 5 7 10 11 12 12 14 14 15 16 17 16 16
18 14 11 19 14 10 14 14 12 10 9 5 12 12 18 14 11 7 9 5 7 10 14 18 8 12 10 6 6 14 5 12 6 12 7 12 11 17 10 14 19 13 13 15 11 7 6 10 5 10 3 9 9 9 8 15 19 13 11 14 13 7 20 14 5 4 8 12 8 5 5 5 4 6 5 7 9 10 11 12 12 12 13 15 17 16 16 16
19 20 15 9 12 7 10 14 19 17 9 7 11 14 11 16 12 13 10 10 10 18 14 10 15 14 16 16 13 14 9 9 8 13 12 5 9 7 11 8 7 10 10 16 5 8 15 11 6 6 8 8 4 6 4 4 13 19 14 14 6 5 12 17 14 7 8 13 11 3 7 10 9 13 8 6 10 11 11 12 12 12 14 17 16 15 15 14
20 15 18 16 15 10 13 17 19 11 8 6 13 6 6 11 7 9 10 16 17 15 7 7 10 9 17 14 12 17 7 14 8 10 10 8 16 7 10 15 7 16 12 4 10 5 4 5 7 3 3 6 2 10 9 3 3 19 17 14 20 9 7 6 17 8 9 10 9 5 4 8 6 5 11 13 13 11 11 12 12 15 16 16 14 15 15 17
12 11 14 5 7 17 17 19 14 10 5 12 9 13 12 16 8 16 17 15 10 13 9 10 11 6 12 13 9 7 16 22 11 9 16 12 9 5 12 10 10 7 10 11 10 6 7 10 11 5 4 3 4 10 13 6 6 7 11 11 3 14 10 13 16 12 17 7 7 6 4 13 14 10 10 11 12 11 13 13 13 15 17 16 15 15 16 16
10 9 7 3 9 14 18 14 7 4 9 11 9 18 3 11 13 16 18 5 10 7 11 4 2 7 6 4 12 15 11 12 15 10 7 9 11 2 4 5 9 9 11 11 9 4 4 5 7 8 4 5 11 9 15 15 10 6 10 7 6 8 6 14 6 8 12 18 13 15 9 16 13 8 6 12 13 13 13 14 14 15 15 14 14 15 14 15
7 8 6 7 12 15 14 5 8 10 10 7 4 8 7 14 13 16 18 12 13 12 13 5 4 6 8 10 5 6 15 8 11 11 7 5 6 9 2 5 5 8 6 6 7 7 9 5 10 8 7 3 8 5 3 9 13 18 19 15 17 13 11 8 9 4 6 12 15 16 17 12 12 4 5 8 12 14 12 16 15 14 14 14 14 14 15 14
8 8 5 10 13 15 10 12 10 5 9 7 9 10 11 9 10 14 14 10 11 11 5 4 1 6 5 5 7 7 15 10 5 8 4 10 2 4 4 4 3 11 21 19 14 8 13 9 6 3 4 2 3 7 4 7 11 7 11 10 7 9 16 12 11 9 7 5 10 9 15 6 6 5 9 10 12 14 13 15 16 14 13 13 13 13 12 13
8 8 5 15 14 10 4 6 2 7 8 9 5 7 7 11 8 12 16 10 10 5 6 8 3 4 3 5 4 9 8 15 5 8 6 6 5 3 8 6 6 10 10 9 5 7 9 11 7 5 6 9 8 5 5 6 7 11 10 5 6 9 10 17 15 15 17 7 6 5 8 8 3 10 10 12 12 14 15 15 16 13 11 11 11 12 12 13
7 6 6 7 11 5 3 11 9 5 8 7 2 10 4 9 6 16 10 8 8 9 4 6 5 4 6 4 8 9 3 16 7 6 9 3 11 3 9 8 4 9 7 18 18 13 20 8 13 6 6 11 11 10 10 7 13 9 6 4 2 5 8 5 11 4 14 10 10 15 13 11 9 10 12 12 12 13 15 15 14 13 10 10 10 10 11 11
8 6 4 9 9 6 5 6 7 7 4 4 4 7 8 5 10 18 10 8 5 4 3 5 3 5 9 4 10 7 13 9 18 7 7 4 8 4 8 13 5 7 3 4 10 11 14 5 11 11 12 12 10 7 8 4 3 4 4 6 7 6 9 9 5 6 9 6 5 10 9 5 10 11 14 12 11 13 12 15 16 12 10 9 8 10 11 12
9 14 9 8 12 6 8 3 3 4 4 3 2 8 2 6 9 7 8 8 2 4 7 3 2 5 9 10 16 16 15 13 12 14 8 8 6 11 7 8 9 7 10 16 8 13 14 7 7 11 16 17 11 7 4 2 5 8 2 9 8 3 4 8 12 10 14 9 7 8 13 17 15 15 14 12 10 9 11 11 12 11 9 9 8 9 10 10
8 9 15 13 8 9 10 5 2 3 4 4 6 3 4 8 9 13 6 4 7 6 6 11 7 8 6 12 8 13 7 12 15 16 8 6 3 5 6 7 5 13 8 10 8 14 11 13 6 10 15 4 2 2 3 5 10 7 6 6 8 8 3 7 11 13 10 19 6 5 12 25 19 16 13 12 12 8 10 10 10 11 9 10 9 9 10 10
9 6 7 6 11 13 10 13 8 3 5 2 5 3 5 4 3 4 5 2 2 8 5 10 16 9 3 8 7 15 7 11 10 11 3 6 6 8 11 12 12 12 7 7 5 12 13 10 2 7 8 10 9 7 11 20 17 14 14 12 13 11 5 9 5 4 4 15 19 13 16 17 14 12 13 11 10 11 10 9 10 9 10 11 10 10 11 12
7 6 10 5 5 5 10 5 8 10 9 5 6 4 5 4 3 2 2 6 10 9 6 7 9 11 5 3 11 10 3 14 8 5 7 5 5 5 9 6 4 11 9 8 10 7 18 8 4 6 13 15 15 12 7 18 9 15 17 16 13 15 14 12 10 2 4 2 6 24 16 12 8 9 12 11 10 12 11 9 11 12 12 11 10 12 13 13
4 7 8 6 2 2 2 2 4 5 6 8 9 8 7 3 1 2 6 7 6 4 5 14 3 8 8 10 8 10 2 5 9 9 3 5 4 5 5 5 5 7 10 7 4 4 14 7 6 3 10 10 11 11 14 11 11 17 14 16 14 11 13 12 8 7 16 16 13 17 19 12 6 10 13 11 10 11 10 12 12 11 12 12 13 13 13 13
8 7 5 7 4 5 3 4 5 7 5 4 8 9 4 2 4 4 6 3 4 7 6 13 8 10 10 16 15 8 2 7 9 8 7 6 11 4 9 3 4 4 7 6 7 5 14 9 4 6 12 5 5 10 8 12 17 18 14 15 16 10 9 8 6 7 5 16 14 16 14 12 10 11 13 11 11 11 11 10 10 11 12 12 12 12 12 12
10 5 6 6 6 6 4 3 2 8 7 11 14 8 7 4 4 4 13 8 9 6 11 12 4 18 7 16 9 4 4 4 3 4 8 11 13 11 9 8 5 3 5 5 2 9 6 21 12 8 14 4 3 4 5 5 6 8 6 9 8 10 9 9 10 11 7 16 25 21 13 10 14 12 14 10 11 11 10 10 10 11 12 12 11 11 12 11
Wind_Speed
12 13 12 13 13 13 12 12 12 13 13 13 14 13 14 14 14 14 14 14 15 15 15 15 15 16 15 16 16 16 14 10 12 6 3 14 6 11 11 3 8 13 11 3 6 7 3 2 3 1 4 3 1 2 2 1 1 1 2 5 1 4 3 4 5 6 1 1 4 7 3 2 1 1 1 3 8 5 4 6 4 4 5 4 4 9 11 12
13 13 13 13 14 14 14 13 13 13 13 13 13 13 14 14 14 14 15 14 15 15 15 15 16 16 16 16 16 17 13 9 10 10 20 5 9 12 14 9 7 13 13 4 7 5 8 1 2 3 5 3 1 1 2 1 2 2 2 3 7 4 6 5 3 5 0 4 4 5 5 1 3 4 1 3 0 2 4 3 3 3 5 9 10 11 12 13
13 12 12 13 13 14 13 13 14 13 13 13 13 13 13 14 14 14 14 15 15 15 15 15 15 16 16 16 16 15 10 7 4 11 19 14 24 20 17 14 10 16 12 7 4 8 7 10 7 4 1 2 0 2 1 2 3 4 5 3 7 5 4 5 4 4 3 3 8 9 3 3 2 1 0 2 3 2 4 4 1 2 3 6 8 11 12 12
12 12 12 12 14 14 13 13 13 14 13 14 14 14 13 14 14 14 14 14 15 15 15 15 16 16 16 15 16 8 3 4 4 7 4 3 14 20 14 14 13 14 6 5 8 5 3 7 5 6 2 1 2 0 3 3 3 2 2 4 4 3 2 3 4 8 9 3 4 4 1 1 3 2 1 6 4 1 3 6 7 10 9 9 10 11 10 11
12 13 13 12 13 14 14 13 13 14 14 13 14 14 14 14 14 14 14 14 14 14 14 15 16 16 16 15 15 3 1 3 6 2 2 2 5 10 17 15 16 10 8 7 7 4 6 7 5 1 3 3 0 1 2 2 3 3 6 4 4 0 2 6 5 7 4 2 2 4 5 1 1 1 4 5 4 3 5 6 6 7 13 14 14 12 10 11
12 12 13 13 12 13 13 14 14 14 14 13 14 14 14 14 14 14 14 14 14 14 14 14 15 15 16 15 5 2 0 1 1 2 4 5 5 8 13 15 15 9 10 9 5 5 7 3 6 3 1 2 4 5 2 3 2 4 2 3 5 4 6 1 1 4 0 2 2 1 2 1 2 1 1 3 2 1 1 1 7 8 10 9 10 13 12 11
13 13 13 14 13 13 13 13 13 14 14 13 14 14 14 13 14 14 14 14 14 14 14 14 13 14 14 11 1 1 2 9 5 6 4 5 3 8 14 15 14 9 9 8 7 7 4 6 5 4 4 2 1 4 4 1 0 2 4 0 3 5 8 5 7 8 6 0 7 1 4 5 3 0 1 1 3 3 3 4 10 12 10 11 12 11 13 13
13 14 13 13 14 15 15 14 14 14 14 13 13 14 14 13 13 14 14 14 14 14 13 13 13 13 12 4 1 1 0 10 14 5 2 8 8 13 14 9 11 8 9 11 10 7 6 8 9 3 3 8 3 7 1 1 0 4 4 3 4 3 5 5 6 7 6 7 6 3 6 11 1 2 3 2 3 3 6 8 11 11 11 9 9 11 9 8
13 13 14 14 13 14 14 14 14 15 16 14 13 14 15 14 13 14 14 14 14 13 13 12 13 11 7 2 1 2 9 9 4 5 6 7 9 10 15 8 6 9 6 6 6 8 9 5 3 6 6 5 2 5 1 4 6 5 6 2 2 5 4 5 6 7 6 5 2 4 9 9 2 5 1 4 4 4 8 10 10 11 10 9 9 9 9 8
14 13 14 15 15 15 15 14 14 14 15 16 15 14 15 15 14 14 14 14 13 12 12 12 11 10 3 2 0 1 8 6 4 1 4 8 9 12 5 6 10 8 8 4 5 8 8 8 10 5 5 2 3 2 3 5 5 4 5 5 5 7 4 4 3 5 1 3 1 3 5 4 6 2 4 1 3 7 9 10 10 10 11 9 8 7 7 7
13 13 15 15 14 14 14 15 15 15 15 15 15 15 16 15 15 15 14 13 13 12 11 11 9 8 2 0 3 8 6 2 1 4 5 6 10 11 8 8 7 7 8 4 7 10 2 6 4 3 1 3 4 3 3 3 3 3 3 0 4 5 4 6 4 10 0 4 5 7 6 1 2 2 3 3 4 6 13 11 12 10 9 8 7 7 6 7
14 14 14 15 15 14 13 14 15 15 15 16 15 16 16 15 16 15 14 13 12 11 10 9 9 3 3 2 5 12 3 3 2 3 6 6 3 4 5 8 6 9 11 9 7 4 4 7 5 4 2 2 1 1 3 4 1 1 3 3 5 4 4 2 5 4 5 4 4 6 1 3 0 5 2 3 4 4 10 12 11 11 8 7 6 6 6 7
15 15 15 15 15 14 14 14 14 15 16 15 16 17 16 16 16 15 14 13 11 10 10 9 5 2 1 3 12 13 10 4 1 5 3 0 0 1 4 4 5 6 6 8 4 5 5 3 4 4 1 2 2 1 0 3 1 1 2 2 3 4 4 3 2 1 4 3 7 6 2 6 7 5 2 2 4 6 7 9 11 9 8 7 7 7 7 6
16 15 15 15 15 15 14 15 15 15 16 16 16 17 17 17 17 16 15 13 12 11 9 7 3 1 3 8 7 3 5 7 8 9 7 4 4 3 1 3 5 3 0 4 3 6 6 1 2 1 2 2 1 1 1 3 3 4 1 3 1 0 3 2 0 1 4 2 7 3 4 7 8 5 6 4 5 10 8 8 11 10 8 8 7 7 8 8
14 15 15 15 15 15 14 15 15 16 16 16 17 18 18 18 17 16 15 13 12 9 7 3 2 2 1 10 6 14 17 5 7 9 6 7 7 0 4 3 4 3 2 2 1 1 4 2 2 1 1 1 0 2 3 1 4 2 3 3 3 3 5 7 3 3 5 1 2 3 0 7 7 8 5 7 10 8 9 9 9 9 9 9 8 8 8 8
14 14 15 14 14 15 15 15 15 16 16 17 17 18 20 19 19 18 16 12 12 8 3 0 4 5 4 11 4 3 2 3 6 8 7 10 9 5 5 6 4 3 3 0 1 1 2 4 2 5 2 2 2 4 3 1 1 4 3 2 0 1 5 3 1 2 3 0 1 2 4 2 1 5 2 1 4 7 9 9 8 10 11 10 9 9 7 6
15 15 14 14 14 14 15 15 15 16 16 16 19 19 20 19 19 17 13 9 4 2 4 1 4 4 2 4 2 3 4 4 4 1 5 8 11 5 9 5 2 4 4 1 1 2 1 4 0 2 3 2 2 4 2 1 2 1 2 3 2 2 1 2 5 0 2 2 1 2 1 4 0 3 1 4 7 7 6 7 6 7 8 9 8 8 8 7
14 15 14 14 13 13 13 15 15 16 16 16 15 18 17 22 15 2 2 3 2 1 2 3 2 2 12 8 6 4 1 2 1 4 5 3 6 7 5 2 3 8 6 2 2 4 1 2 2 5 1 2 2 3 7 7 7 3 0 3 1 1 1 1 1 2 2 3 1 1 1 7 1 2 3 6 8 9 11 11 9 9 8 8 8 8 9 7
14 14 14 14 14 15 15 15 15 16 15 14 15 19 17 5 3 3 5 5 4 2 1 4 5 5 2 1 6 5 6 5 0 5 4 9 3 2 4 4 7 8 3 4 1 4 1 3 3 2 6 4 6 6 7 4 7 6 6 4 3 1 0 1 4 4 1 1 1 3 4 8 3 3 3 4 4 6 3 1 2 2 4 6 8 8 8 7
15 15 13 13 13 13 13 14 14 14 15 8 7 8 3 1 1 1 1 1 6 7 3 5 13 4 8 3 2 1 5 3 1 5 4 2 10 5 2 3 1 3 6 5 4 4 4 5 6 7 4 6 5 7 8 6 7 6 4 6 1 0 4 4 4 5 0 1 2 4 5 6 1 1 4 7 6 4 3 3 4 4 5 7 7 8 8 7
15 14 13 14 14 15 14 14 14 12 13 6 6 4 1 0 1 2 2 8 11 11 12 5 16 13 9 1 2 9 8 7 1 1 6 4 7 12 2 2 1 3 4 6 9 1 5 5 6 6 8 9 8 5 5 5 2 5 6 2 1 1 2 3 2 1 2 1 3 2 5 2 3 2 7 6 5 1 1 2 1 1 4 1 1 0 2 2
15 15 13 14 14 14 15 15 14 13 8 1 3 3 4 4 0 2 1 6 5 17 16 17 5 12 11 12 6 3 0 3 11 6 1 7 5 10 2 4 3 7 1 3 6 4 3 7 5 9 4 4 4 4 4 7 4 3 4 3 1 2 4 8 3 2 1 2 5 2 2 4 4 5 6 9 4 2 6 2 2 3 3 2 3 4 3 2
15 14 13 14 14 14 14 15 13 10 4 1 2 4 5 4 2 3 1 3 8 8 13 14 12 15 15 8 5 3 3 6 5 3 5 4 5 5 8 5 4 3 2 5 8 6 4 3 10 3 6 6 3 3 6 5 4 5 4 3 4 3 1 2 2 3 1 1 2 2 6 3 8 2 4 8 7 4 9 7 7 4 3 4 4 6 5 4
14 15 13 14 14 14 15 15 11 4 0 3 5 8 4 1 2 5 1 3 4 4 7 10 15 6 11 7 4 10 6 3 4 5 4 6 9 5 7 5 5 4 5 5 8 8 5 3 3 9 6 7 5 3 6 5 3 1 4 3 2 1 2 5 4 5 2 1 3 5 6 4 9 7 8 7 4 11 13 12 13 10 7 1 3 4 7 8
15 15 14 14 14 15 15 15 1 0 5 4 7 10 11 10 6 3 0 3 2 6 3 1 5 6 6 3 4 5 4 1 7 3 4 8 6 5 4 3 4 3 5 5 7 5 5 3 5 9 4 3 5 3 4 7 4 1 4 6 6 2 3 1 3 7 8 1 4 3 3 2 6 5 8 9 11 13 10 14 14 13 9 6 4 2 1 1
16 16 13 13 14 15 16 6 2 5 7 5 4 1 2 2 5 4 1 1 4 4 1 5 6 6 6 3 5 4 5 4 8 7 5 6 6 5 3 2 3 6 5 7 7 3 5 3 5 6 5 4 4 4 4 5 5 3 5 8 5 5 2 1 1 1 2 1 0 1 4 3 4 9 10 8 7 9 11 14 11 11 9 7 6 5 4 3
16 15 13 12 13 12 7 2 5 7 6 2 1 4 4 5 3 2 1 2 3 4 7 0 3 2 5 7 9 6 2 5 1 4 3 3 7 0 7 2 2 2 3 2 3 3 3 4 4 4 4 4 4 4 3 7 8 3 2 9 6 4 4 4 2 4 4 2 2 4 2 7 1 5 3 5 7 11 13 13 12 9 9 9 8 8 7 6
16 14 13 12 11 8 4 5 6 5 8 1 5 6 7 5 3 1 0 2 2 2 2 2 4 2 2 6 11 9 3 3 6 5 4 5 6 0 5 7 5 8 3 5 7 4 6 5 6 5 2 3 6 5 7 8 7 4 3 9 9 9 6 4 4 3 2 0 5 4 1 4 1 1 4 5 6 11 12 11 10 10 9 9 9 8 8 8
15 13 13 12 13 12 7 4 5 9 4 3 7 9 6 6 2 1 1 1 1 0 2 5 4 3 0 7 6 8 1 3 2 2 2 5 1 4 3 6 6 7 3 9 8 2 1 8 10 10 8 6 5 4 10 11 5 5 5 4 5 5 4 4 4 3 1 2 4 2 1 3 0 2 4 3 4 7 6 7 8 8 10 10 10 10 9 8
15 12 12 11 9 4 1 2 9 10 7 9 9 10 8 2 2 0 0 3 1 2 1 1 4 5 5 10 7 6 2 1 2 2 4 4 1 2 3 3 5 5 3 0 3 6 1 3 6 5 7 8 8 5 11 13 5 6 6 6 5 7 4 3 6 2 4 0 5 3 2 3 1 0 1 2 1 3 2 3 5 7 8 9 9 10 9 8
14 14 12 12 5 4 6 6 7 4 3 5 11 11 2 1 1 2 2 6 3 0 0 2 3 7 8 12 7 6 2 0 2 7 3 2 2 3 3 5 4 5 2 1 1 3 2 2 2 3 4 3 4 3 1 2 2 5 3 4 6 3 5 3 2 4 3 2 5 2 1 3 4 0 1 2 4 6 5 4 6 7 8 8 8 8 9 9
12 14 15 8 7 5 6 4 1 1 7 10 10 5 3 2 3 3 5 4 2 3 0 3 1 4 8 5 6 11 7 1 1 6 8 5 5 6 4 6 5 4 4 3 5 3 2 3 2 5 3 9 2 5 3 2 0 6 5 8 8 1 2 1 1 3 3 5 1 1 2 2 3 1 1 4 5 5 4 4 5 6 7 7 8 8 6 6
10 11 17 11 9 7 12 12 8 9 8 8 6 1 2 2 3 6 6 4 1 3 3 1 3 5 7 6 5 5 3 4 2 2 8 2 8 3 1 4 7 6 5 3 3 2 5 2 3 4 2 3 7 6 2 3 3 6 7 7 7 4 3 3 2 0 3 3 2 1 2 3 1 2 0 2 4 3 4 4 5 6 7 8 9 9 10 9
12 15 9 8 9 10 10 7 5 2 4 5 2 4 3 1 4 5 5 5 4 6 8 3 3 4 8 7 6 8 4 0 6 3 6 5 7 6 1 2 6 5 4 2 6 5 3 2 7 4 2 3 6 6 10 7 8 9 4 9 7 7 5 3 3 5 6 6 1 3 1 2 5 2 2 4 2 3 5 6 6 8 8 8 9 10 11 11
14 13 11 9 8 10 11 9 5 3 2 3 1 3 4 6 1 1 2 2 2 3 8 5 2 6 5 3 2 7 4 1 2 7 2 8 6 5 6 3 2 4 3 7 2 2 6 5 5 4 0 6 8 5 5 6 5 0 4 6 6 7 6 3 6 5 3 3 2 4 0 1 1 1 1 2 4 6 7 8 8 9 7 8 9 10 10 9
12 6 6 6 6 5 8 6 7 6 5 2 4 2 6 3 2 3 1 2 3 4 7 12 4 6 4 2 1 8 3 3 3 4 1 6 5 7 5 4 6 7 5 4 4 1 2 1 2 5 1 6 6 5 2 7 3 4 4 4 5 2 10 6 2 2 4 6 1 1 0 1 1 3 2 4 6 6 7 7 7 7 8 8 9 9 9 8
8 8 6 4 6 4 5 8 9 9 4 2 4 4 2 3 5 7 4 3 5 10 7 4 2 4 5 4 4 8 3 5 3 3 2 1 0 1 4 3 4 4 6 8 1 3 6 4 2 3 5 4 2 4 2 1 6 7 3 7 2 3 5 7 4 1 3 5 1 1 2 3 4 2 5 4 6 7 7 8 8 8 8 8 8 8 8 8
8 6 9 9 7 5 8 10 11 5 2 2 4 2 2 3 2 4 5 7 6 10 3 2 2 6 6 5 4 9 3 6 3 3 4 2 1 3 6 3 4 8 7 1 3 1 2 1 2 1 1 2 1 6 5 2 1 9 9 7 6 1 1 3 6 1 2 1 1 1 2 2 2 1 5 8 8 7 7 8 8 8 7 7 8 9 9 10
6 4 5 1 3 10 10 11 7 5 2 3 2 3 3 5 3 8 9 5 2 7 3 5 3 1 5 5 3 2 7 6 4 3 6 2 2 2 5 4 4 5 7 6 2 1 3 2 3 2 2 1 2 4 4 1 4 5 6 4 1 5 3 4 4 5 7 3 3 2 1 4 4 3 5 6 7 7 8 8 7 7 8 7 8 8 9 8
4 3 2 2 5 8 11 8 3 1 2 4 4 4 1 4 5 10 10 1 2 3 5 2 1 3 2 2 7 5 3 7 7 3 2 1 2 1 1 2 3 4 7 7 3 1 0 1 1 2 2 2 3 1 7 8 4 3 4 0 1 3 2 6 2 2 4 6 5 5 1 5 5 3 2 4 6 7 8 8 7 6 8 8 8 8 8 8
3 2 1 4 7 8 7 1 1 3 4 2 1 2 4 4 4 9 10 5 5 6 6 2 1 1 3 3 2 3 3 3 3 3 1 1 1 2 1 1 0 4 2 3 4 1 2 0 3 2 3 0 2 2 2 4 7 9 8 7 9 7 5 4 3 2 3 4 4 6 5 5 6 1 2 4 7 8 7 10 8 8 7 7 7 8 8 8
3 2 1 6 8 9 4 6 1 1 1 3 3 2 2 3 4 9 7 3 8 4 2 1 0 2 1 1 3 2 5 3 1 3 1 4 0 1 1 3 2 7 8 6 6 3 5 3 2 0 1 0 1 3 2 4 5 3 5 4 4 4 7 4 4 3 3 1 5 4 6 2 2 1 5 5 7 8 8 10 9 7 6 6 7 7 7 8
2 2 1 9 8 4 1 2 1 1 2 3 3 3 3 4 4 5 7 5 3 2 1 2 0 1 1 1 1 3 4 4 2 3 2 4 2 0 5 4 5 7 5 1 3 1 4 2 2 2 3 5 4 2 3 3 5 7 5 3 3 4 5 8 6 7 7 3 2 1 2 2 1 5 5 7 8 8 6 8 10 6 5 6 7 7 8 8
2 1 1 4 6 1 1 3 3 3 2 3 0 4 2 3 2 8 4 4 0 3 1 2 2 2 2 1 2 2 1 4 3 3 3 0 3 1 6 4 3 2 2 8 7 6 3 2 6 2 1 4 4 3 3 3 6 4 2 2 1 3 5 3 6 2 5 5 5 7 4 4 4 5 6 7 8 8 8 7 8 7 6 5 6 6 6 7
2 2 0 3 3 3 0 1 3 3 2 2 0 3 3 2 6 11 5 4 2 2 0 1 0 3 2 1 3 3 5 4 4 3 3 1 2 2 7 9 4 3 2 2 5 5 5 1 4 3 5 5 2 0 1 1 1 0 2 3 4 4 6 5 2 1 3 2 4 3 2 1 6 7 8 7 7 8 7 8 10 7 6 5 5 5 6 7
1 3 2 2 2 2 3 1 1 1 1 1 1 4 1 2 4 4 6 4 1 2 1 2 1 3 4 5 7 8 8 7 4 4 2 2 2 2 3 6 7 3 7 11 5 6 4 2 4 5 7 8 3 2 2 0 1 3 0 6 4 3 3 5 5 4 6 4 4 4 7 10 9 9 8 7 5 6 7 7 7 6 6 5 5 5 6 6
3 1 4 4 2 4 5 2 0 1 0 2 1 1 1 2 4 6 5 1 3 2 2 5 3 3 2 7 3 7 4 7 10 8 3 3 0 1 4 4 4 8 5 5 4 6 4 6 4 7 10 3 1 1 2 3 6 4 3 3 4 5 1 4 5 5 5 10 2 1 8 14 11 10 8 8 6 5 6 6 6 6 5 5 5 5 6 6
2 2 2 1 3 4 4 6 5 2 2 0 2 1 2 2 1 1 2 0 1 3 1 4 9 5 2 4 3 5 3 5 5 3 1 3 2 4 4 8 6 7 3 2 3 5 5 4 1 4 5 6 6 4 7 12 10 9 8 5 7 6 3 4 2 1 2 7 9 7 11 10 9 8 8 7 5 6 6 6 6 6 6 6 6 6 6 7
2 1 2 3 1 2 5 3 5 7 5 2 1 0 2 3 1 0 0 3 5 5 3 2 5 7 3 2 6 3 0 5 2 1 1 2 2 1 3 2 3 8 6 3 4 2 7 4 1 3 7 10 10 8 3 12 5 9 10 10 9 10 9 7 5 1 2 1 2 14 10 8 4 6 7 7 6 8 6 5 6 7 7 7 6 5 8 8
0 2 2 3 1 0 1 1 2 3 3 3 3 4 2 2 0 0 2 3 1 1 3 7 2 5 5 7 5 4 1 2 5 3 1 3 1 1 1 2 1 3 5 3 1 3 6 1 4 0 5 6 7 8 9 7 7 10 9 11 9 7 9 8 5 4 8 10 7 10 13 7 3 6 8 7 6 6 5 7 8 7 7 7 7 8 8 8
3 2 2 3 2 1 1 2 2 3 1 1 2 5 2 2 1 2 2 1 1 1 2 7 5 7 6 11 10 6 0 5 6 5 4 2 5 1 3 0 1 1 4 3 3 2 6 3 1 2 6 3 3 6 5 8 12 12 9 10 10 7 6 4 3 4 1 9 8 10 6 4 5 7 8 7 7 7 7 6 6 5 6 8 7 7 7 7
3 2 3 2 1 2 1 1 1 4 2 4 5 5 2 2 2 1 4 4 6 4 3 8 2 10 4 10 6 2 1 1 2 3 5 7 8 6 5 4 3 1 2 2 1 4 2 8 4 4 7 0 2 2 3 2 4 4 3 4 4 6 5 5 6 7 5 5 13 11 6 5 8 7 8 6 7 7 6 5 5 6 7 7 7 6 6 7
Wind_Direction
323 319 324 328 326 324 324 324 323 321 322 323 325 326 325 326 328 328 326 326 326 326 328 327 325 323 325 327 329 327 335 331 315 315 240 240 159 218 192 134 174 190 187 96 104 101 67 80 130 10 92 104 249 124 227 104 124 82 139 114 192 203 166 210 196 190 191 268 299 337 4 42 298 0 144 56 44 72 68 50 354 19 33 16 73 102 117 120
316 316 320 320 319 318 320 323 327 324 321 319 323 321 325 324 326 325 327 325 327 326 327 327 326 324 326 326 329 331 337 319 298 276 241 186 201 201 206 187 136 158 144 101 141 124 122 111 186 113 127 150 305 152 128 239 134 135 110 116 212 200 238 163 203 226 308 270 279 291 315 158 240 139 211 87 352 36 55 23 25 27 40 62 78 108 120 128
325 322 321 317 314 315 317 318 318 320 319 320 319 322 322 322 323 323 324 326 325 326 327 326 325 325 324 328 325 341 340 318 292 268 268 209 227 219 202 183 150 153 159 143 180 145 149 180 166 118 105 103 345 166 138 249 155 221 118 191 235 214 248 215 212 251 206 263 302 313 319 359 264 241 298 130 144 67 156 151 7 176 156 102 112 123 133 141
327 327 319 320 317 316 316 317 315 315 317 318 319 321 322 321 320 323 323 324 325 324 325 324 323 324 325 327 330 341 9 275 284 248 268 249 216 223 205 175 160 162 135 108 153 143 109 106 131 124 113 104 276 103 140 237 139 260 136 186 229 226 224 261 190 236 256 235 273 270 356 308 285 223 99 146 87 305 265 225 167 188 175 140 137 139 144 149
330 322 321 317 314 314 317 320 324 317 316 317 317 318 321 320 322 321 323 320 323 323 323 323 324 323 325 327 332 45 0 10 263 229 263 261 227 205 191 173 164 154 148 128 103 87 113 130 139 79 105 196 327 80 246 247 190 115 207 189 204 163 223 253 243 242 233 207 229 337 342 281 303 27 110 121 128 228 209 218 194 169 157 153 150 153 155 161
324 323 323 320 317 313 312 314 316 316 314 317 315 317 315 318 319 320 318 318 321 324 321 323 321 323 325 330 339 132 116 259 330 326 349 326 287 213 175 161 158 140 120 127 131 140 105 97 127 152 150 117 191 164 261 196 139 225 315 243 233 220 249 270 302 238 120 338 260 348 261 3 351 190 234 134 171 224 249 163 153 147 153 145 141 150 162 173
322 316 319 319 320 319 315 312 311 313 315 316 314 314 315 316 319 318 316 319 319 320 322 320 322 322 330 345 108 52 199 280 313 241 44 61 67 148 153 147 142 142 132 112 130 144 157 130 139 178 125 125 255 188 239 123 157 154 242 271 282 222 241 269 280 296 305 293 278 175 311 318 258 48 159 236 258 302 306 116 113 128 135 142 151 170 173 178
324 326 320 316 315 313 312 315 317 317 312 311 314 314 314 314 316 315 318 315 318 317 320 320 322 324 339 10 0 314 70 245 257 298 47 91 102 127 128 120 144 147 135 149 149 151 141 140 174 137 120 158 214 168 238 187 103 182 237 225 260 216 242 266 268 286 284 277 264 338 328 281 152 260 127 256 337 16 72 97 110 127 133 147 159 169 177 175
325 326 326 320 316 319 316 312 312 313 316 315 310 312 311 316 317 316 312 315 314 315 316 320 321 324 13 90 98 344 249 249 305 283 116 110 117 117 125 131 176 146 136 129 151 152 142 210 139 178 207 183 204 158 229 157 286 202 217 198 260 266 283 278 298 279 280 297 295 358 289 286 258 213 127 266 60 101 101 98 117 128 135 153 170 178 180 181
326 326 319 316 313 311 315 318 314 311 309 311 313 311 312 313 316 314 313 310 311 311 313 319 317 325 19 356 113 226 263 223 325 28 112 128 129 134 103 128 154 125 119 161 121 137 181 191 171 181 133 134 157 202 152 153 227 181 195 213 223 257 314 305 231 289 348 230 180 239 273 291 339 358 293 285 148 120 100 111 129 136 146 159 170 183 194 192
326 324 318 316 317 314 309 309 312 314 314 314 317 317 311 313 312 310 310 308 310 309 310 309 326 320 347 286 161 224 256 69 43 94 104 130 141 147 158 159 156 136 126 147 176 181 142 128 142 139 347 219 136 254 135 223 159 153 157 134 269 294 280 253 307 273 337 291 193 186 248 348 328 59 220 209 180 144 125 134 140 146 152 164 171 187 200 213
323 320 318 313 313 312 313 317 314 311 308 310 312 310 310 311 308 308 305 307 305 307 307 307 299 309 250 258 221 220 314 66 60 76 112 131 154 157 130 169 172 153 143 167 211 188 164 175 134 129 177 140 123 146 245 195 148 208 143 274 286 352 320 263 211 256 152 247 163 161 60 329 345 219 258 224 155 141 133 144 146 154 159 163 176 191 210 218
321 320 317 315 314 315 314 311 310 311 310 310 312 309 307 308 305 303 304 301 303 302 302 301 298 201 302 296 234 240 274 260 306 58 63 123 109 302 142 162 176 171 163 154 179 200 218 156 132 142 203 118 180 116 159 108 252 85 54 150 317 0 331 286 269 313 138 253 135 141 255 271 255 236 314 241 143 115 126 141 154 157 161 167 182 200 216 222
324 321 318 318 316 316 317 317 315 313 310 312 311 308 307 305 303 301 297 293 296 300 298 290 299 280 194 245 277 265 237 254 280 276 226 178 160 232 146 162 186 159 77 116 170 168 214 119 109 142 146 116 260 274 43 340 20 188 254 63 194 14 271 285 79 208 144 171 164 135 200 278 267 302 247 229 187 153 161 167 162 165 163 174 187 200 212 221
319 319 318 318 320 317 317 317 315 312 312 312 310 308 306 303 299 295 293 293 290 292 287 286 223 201 139 266 272 271 250 217 253 237 142 155 185 32 206 155 168 178 138 116 103 180 164 101 64 35 274 256 225 355 315 32 2 24 102 287 325 151 276 297 312 163 171 14 100 96 89 236 274 265 275 202 174 174 169 176 174 165 168 180 188 201 209 222
317 319 317 316 316 318 320 317 316 313 312 312 311 310 307 301 297 291 286 281 280 263 247 134 202 210 305 294 256 286 54 171 252 218 189 164 174 192 166 153 133 131 139 292 310 63 103 131 158 188 248 27 94 95 47 63 337 354 126 252 171 144 251 349 160 326 199 350 35 150 201 326 328 306 303 213 209 186 176 186 180 168 173 177 191 198 205 214
315 312 318 320 319 322 318 314 315 314 314 316 314 312 306 299 291 285 277 260 249 221 183 172 159 195 208 232 323 298 236 225 222 69 178 183 173 152 114 119 128 119 134 82 114 119 311 148 272 66 31 152 172 122 130 295 305 294 7 163 213 164 261 191 309 316 24 109 265 8 194 231 206 311 89 182 185 190 205 198 187 177 173 182 186 196 202 201
318 312 316 318 321 321 322 319 315 314 317 318 321 315 309 299 302 277 143 170 130 118 226 297 172 228 269 273 281 232 250 285 204 188 158 176 149 147 124 126 98 123 120 73 58 135 265 171 48 191 176 134 132 109 155 207 182 186 225 74 57 355 239 252 85 236 35 12 200 0 211 270 241 299 241 200 196 195 204 198 187 177 172 178 190 197 204 198
322 318 317 319 321 319 318 317 315 316 317 325 322 317 299 314 21 94 107 139 119 47 10 212 159 159 215 252 258 333 322 250 63 135 164 135 184 141 84 86 123 127 117 104 253 133 0 70 42 98 183 172 189 162 161 202 155 158 148 155 133 81 247 250 247 278 81 345 332 188 222 257 179 251 262 265 273 234 238 76 113 143 176 181 192 201 203 199
320 319 320 323 322 321 321 316 315 317 326 332 347 333 353 41 59 358 355 249 233 200 184 169 206 303 324 295 62 312 295 32 131 240 130 163 118 123 111 124 41 61 121 154 139 192 136 146 182 191 191 201 198 176 177 171 146 125 96 106 145 149 278 283 262 253 203 93 250 213 235 245 75 198 275 313 316 294 265 193 158 168 181 193 199 203 208 207
314 315 318 317 316 318 317 316 314 317 329 354 352 2 56 210 318 222 204 234 232 252 261 232 199 221 234 322 359 26 20 317 26 295 185 156 127 128 220 128 167 86 164 161 133 207 91 150 218 196 199 190 193 179 109 92 86 136 115 108 116 169 279 233 255 31 303 116 279 266 204 289 353 348 358 353 33 357 312 288 319 215 208 225 193 225 347 353
315 314 318 319 318 316 315 312 315 315 330 67 4 292 271 241 231 100 344 298 258 233 242 251 226 256 261 272 291 27 131 286 314 278 253 136 162 148 225 124 157 166 116 101 72 108 134 185 223 221 189 98 73 114 126 142 122 77 153 145 100 277 249 287 271 0 344 86 259 269 103 4 1 43 36 35 4 340 349 312 105 81 50 73 107 109 119 182
318 317 320 319 317 314 312 312 316 325 313 170 190 206 243 235 286 12 18 270 275 231 220 231 237 242 261 266 263 174 177 221 255 280 186 133 161 161 148 125 153 147 88 124 141 122 157 284 233 167 137 116 50 85 102 71 69 114 96 102 203 234 47 308 294 339 15 169 260 136 96 18 347 299 62 46 29 3 12 37 49 29 125 138 149 152 154 188
323 321 322 320 320 321 313 320 328 341 231 212 226 213 234 279 321 347 125 231 277 285 188 209 205 207 232 217 209 169 178 224 175 262 227 140 158 166 123 151 136 125 160 145 134 144 180 200 171 125 150 141 134 139 118 132 174 342 136 139 142 208 226 162 259 317 349 31 77 81 61 8 8 8 0 3 29 41 23 29 24 13 358 30 118 148 165 180
327 322 322 320 320 317 322 318 320 285 328 275 243 245 250 263 280 255 171 304 286 276 193 204 160 228 227 124 123 144 210 271 207 232 194 159 143 134 176 156 110 173 145 154 118 126 233 237 124 128 134 140 122 123 182 133 186 299 234 174 188 176 182 289 337 17 17 345 349 123 49 41 313 3 11 348 19 34 31 41 31 21 17 10 40 41 355 194
325 320 324 322 321 327 320 294 78 335 325 269 236 189 176 247 256 191 160 35 293 265 96 248 149 260 135 205 143 160 93 241 206 216 176 194 158 140 128 126 134 182 141 135 158 171 193 153 133 153 153 159 149 165 220 151 166 146 256 188 180 168 145 139 326 59 338 88 244 91 128 144 313 23 355 353 16 38 42 44 36 31 30 28 26 17 14 8
321 320 323 325 321 335 339 337 343 325 319 274 136 354 337 324 281 200 133 332 325 217 162 324 147 234 172 181 152 131 94 247 132 145 156 207 166 237 119 168 61 76 146 143 74 254 114 170 129 97 110 140 127 192 233 145 127 205 243 169 162 125 168 212 148 158 226 256 308 43 115 134 108 356 340 306 25 37 37 37 39 38 37 35 33 35 31 28
319 317 318 318 320 325 300 307 318 290 238 321 342 340 329 318 318 136 31 43 282 146 140 213 223 136 166 161 159 165 202 163 121 220 180 190 108 25 108 177 151 153 163 99 161 257 144 179 159 147 133 129 184 203 186 163 142 218 209 162 162 173 185 139 152 174 231 348 278 324 326 75 91 263 311 333 38 30 40 35 37 40 39 37 37 32 34 37
313 318 320 322 316 318 303 262 274 256 239 324 326 319 324 304 220 180 119 188 203 155 87 93 261 123 45 133 177 204 0 216 125 151 116 137 69 152 107 187 147 150 147 151 182 184 265 166 192 161 152 197 217 199 159 167 169 269 157 78 86 78 75 129 138 130 325 70 271 277 11 118 319 283 3 315 36 40 43 35 33 31 32 25 20 20 23 28
311 314 312 314 324 287 262 232 236 246 291 314 313 301 305 189 139 71 71 249 219 241 227 185 194 192 150 146 188 210 244 329 129 92 127 147 217 77 38 137 122 122 149 1 148 205 169 295 156 114 179 202 183 191 167 178 188 152 112 80 41 46 57 31 67 100 73 1 260 236 351 126 137 210 245 30 80 251 40 45 32 37 43 43 35 29 25 20
314 310 309 310 297 311 307 266 256 241 254 314 322 303 185 93 128 142 228 227 307 233 107 149 195 125 145 151 172 204 205 308 117 131 121 118 67 56 126 49 44 68 58 53 209 328 349 47 130 233 163 91 113 113 273 169 97 116 108 119 84 21 21 28 342 33 114 266 260 294 200 103 170 2 245 49 47 39 49 54 43 42 44 47 45 40 32 30
314 306 298 294 273 266 258 246 103 353 345 337 333 344 95 166 359 172 219 2 319 294 225 201 227 150 179 175 149 168 178 87 168 141 145 154 147 142 171 149 151 111 190 181 219 355 287 224 239 303 239 142 110 87 357 88 274 86 87 98 123 217 53 225 10 183 165 182 338 334 29 37 50 214 239 45 62 61 56 58 62 60 56 56 58 52 37 27
308 298 294 284 283 252 246 256 288 308 329 339 334 9 100 121 216 235 274 329 313 6 308 73 178 154 171 160 179 154 151 155 189 116 132 118 141 166 203 139 172 136 176 243 168 86 259 283 302 263 335 193 127 133 174 95 170 121 134 144 124 139 139 174 272 267 318 289 260 334 348 95 290 304 221 74 72 32 100 81 67 64 62 64 61 50 39 33
308 305 294 263 254 242 248 247 255 305 332 329 280 57 37 134 238 198 226 259 247 315 303 263 115 128 161 176 176 150 166 229 143 173 136 150 139 171 197 0 150 146 86 154 165 189 118 183 268 140 222 188 158 156 181 169 162 185 141 150 169 138 152 167 176 166 195 189 284 299 83 221 140 226 72 84 153 149 110 101 68 55 46 44 51 52 44 35
306 297 276 270 255 246 238 228 218 197 211 293 96 98 176 229 284 234 200 310 34 291 273 345 141 133 193 186 138 165 151 125 134 126 124 140 189 159 168 189 265 108 140 127 246 78 188 200 253 208 0 151 169 204 135 96 82 39 153 68 110 210 145 128 202 147 175 115 48 1 85 303 133 267 170 174 161 105 96 81 71 64 56 50 52 50 46 40
305 276 258 259 248 245 200 200 175 162 181 191 104 166 219 198 219 359 266 244 120 291 301 319 238 145 167 130 170 177 263 118 211 112 87 165 168 168 188 168 187 185 135 153 193 123 46 305 269 306 123 170 201 134 201 144 172 204 96 164 210 170 107 93 57 52 96 65 45 325 301 242 260 231 138 192 124 121 106 91 82 75 64 54 50 46 43 38
299 308 288 260 246 186 170 160 163 158 173 176 128 223 214 281 198 257 272 336 320 290 281 224 215 128 170 184 172 174 231 88 181 112 192 125 27 177 164 226 180 164 173 130 295 189 135 236 298 130 209 275 172 131 123 6 141 92 134 220 164 123 114 125 172 345 57 146 210 13 195 148 149 195 154 180 150 139 114 108 93 70 59 53 46 41 33 23
310 288 280 268 248 145 137 148 144 167 178 148 200 260 194 247 230 240 279 319 345 307 272 187 218 113 184 145 202 166 223 151 213 101 158 210 187 190 148 172 208 177 200 197 124 257 128 0 302 286 345 313 351 91 51 57 344 159 185 155 120 192 207 341 96 132 127 116 156 331 303 255 201 224 159 192 164 147 118 94 69 54 50 47 40 35 28 23
287 299 299 345 78 133 141 146 152 144 108 146 234 217 260 243 274 271 271 310 193 261 272 225 153 236 149 167 174 112 160 178 168 153 115 248 133 186 188 170 193 201 172 145 116 168 53 144 292 297 132 328 39 84 177 223 31 32 99 100 44 102 147 129 196 164 112 179 84 292 255 214 223 222 182 175 156 137 108 83 75 65 60 51 42 31 29 22
283 286 259 66 123 125 142 155 150 80 83 181 198 225 255 287 270 272 274 273 292 239 248 271 214 113 77 191 146 148 179 143 145 217 96 247 138 254 234 261 158 156 161 168 163 161 108 120 147 281 295 51 155 342 184 153 137 52 57 116 41 36 212 101 28 86 164 161 166 144 238 262 253 235 170 174 141 129 115 109 82 64 54 52 47 38 29 23
286 260 305 123 131 136 143 164 152 177 183 263 215 255 320 265 332 283 291 231 223 236 246 282 230 133 175 101 79 130 116 115 121 115 153 47 130 155 328 79 262 110 100 131 146 185 76 106 176 304 28 264 222 249 214 188 164 158 154 182 158 119 109 130 231 27 77 107 176 133 220 270 271 180 299 155 138 123 114 112 100 71 58 52 45 37 33 23
293 198 64 136 137 152 146 132 213 198 126 196 206 176 246 309 290 275 292 285 205 255 252 209 206 114 91 111 162 118 115 75 83 104 282 142 259 132 258 48 235 156 130 166 176 231 148 157 98 81 147 53 265 298 302 183 109 115 133 176 149 127 108 95 132 242 36 31 112 151 116 276 264 49 85 91 112 111 113 110 99 82 65 57 48 45 38 31
249 299 10 149 160 165 56 64 342 174 202 233 297 296 229 249 252 283 310 302 315 220 303 37 308 83 12 144 153 94 113 85 43 147 146 110 133 251 282 313 146 78 78 33 57 260 88 83 71 304 321 299 319 291 38 52 90 69 29 53 91 149 175 162 172 182 141 165 91 16 65 251 288 114 91 89 92 91 86 97 106 88 75 55 50 44 38 27
341 246 36 133 174 270 110 150 203 225 277 300 257 255 256 261 300 291 262 297 0 321 6 314 344 89 79 28 83 100 200 90 4 86 58 126 71 334 1 31 132 119 112 200 138 218 126 286 122 71 13 336 346 348 358 344 51 77 88 336 50 92 77 128 107 47 102 206 169 128 185 224 172 107 102 108 99 95 95 88 91 89 66 56 49 46 43 34
312 255 287 104 184 303 235 190 139 152 188 221 334 311 300 279 215 231 251 288 307 281 297 0 116 308 35 336 92 99 46 125 121 354 115 73 103 346 352 24 60 101 11 161 126 116 91 175 109 124 152 156 160 221 231 217 122 286 84 21 22 108 135 114 143 67 127 214 127 130 177 250 120 129 118 113 111 99 92 90 81 75 71 60 52 45 43 38
237 106 88 94 224 260 268 228 247 145 137 175 316 258 221 277 300 261 183 263 233 299 89 268 337 65 43 49 45 42 35 24 90 179 75 52 337 25 4 359 43 98 90 74 52 74 120 91 69 157 153 178 200 204 264 131 48 76 16 42 353 14 17 94 99 102 189 185 173 221 158 151 158 162 144 137 129 131 114 89 91 92 85 76 62 52 49 38
314 202 147 162 171 249 256 307 281 91 209 193 140 309 288 227 262 310 155 261 40 48 7 46 346 45 3 63 65 62 352 60 46 75 27 117 262 184 296 75 37 24 92 72 24 83 81 67 18 75 55 75 113 107 6 71 102 22 33 350 17 18 24 98 135 207 162 106 261 258 165 149 173 150 144 133 123 95 78 83 92 87 86 82 72 62 51 43
165 282 327 219 150 199 208 266 189 210 253 0 269 342 260 294 289 242 332 230 323 22 81 347 26 23 14 116 125 81 356 62 33 78 347 13 64 353 37 10 53 323 16 56 14 105 114 110 328 80 47 44 39 50 89 78 64 67 53 38 46 19 50 106 183 222 128 151 197 187 162 150 145 135 126 119 126 113 85 79 75 85 82 77 65 52 50 39
231 247 214 270 256 233 174 216 167 184 225 185 272 252 292 241 264 237 204 322 18 355 56 90 341 339 15 50 92 119 36 78 9 325 143 42 56 48 43 350 36 24 48 57 33 102 97 53 59 96 91 41 24 35 34 104 105 58 35 36 42 63 61 76 88 131 131 78 159 139 136 97 83 121 110 104 90 91 90 81 74 64 58 54 51 47 44 36
143 0 304 318 7 122 199 78 128 125 197 219 196 237 237 231 237 350 8 78 68 358 16 77 356 28 45 59 68 79 268 165 165 125 252 127 32 71 123 180 219 343 43 51 47 356 100 198 166 34 69 22 20 44 50 63 93 80 37 33 32 38 56 42 72 63 67 49 66 112 114 112 49 92 100 96 89 98 88 73 69 64 61 53 44 37 37 29
301 295 238 304 346 270 63 92 114 146 120 300 154 268 208 283 66 135 77 316 163 174 74 133 145 79 42 71 66 81 188 121 99 111 177 146 123 201 122 262 113 65 4 32 25 345 65 144 52 75 79 12 351 41 63 77 80 79 51 23 20 11 42 12 20 341 63 130 110 102 111 153 147 117 102 97 97 82 76 74 73 69 67 60 46 35 30 20
302 272 297 272 192 295 197 166 100 101 227 216 178 231 180 251 203 63 68 12 34 45 123 136 189 94 42 68 64 85 198 183 92 136 110 82 93 76 71 89 67 124 128 75 315 65 90 132 131 112 89 282 253 22 10 19 64 33 353 330 354 72 96 86 36 18 18 130 134 164 190 99 132 131 111 94 86 77 65 55 67 63 60 59 50 39 23 18